Regional Weather Roundup
Issued by NWS Kansas City/Pleasant Hill, MO

Home | Current Version | Previous Version | Graphics & Text | Print | Product List | Glossary Off
Versions: 1 2 3 4 5 6 7 8 9 10 11 12 13 14 15 16 17 18 19 20 21 22 23 24 25 26 27 28 29 30 31 32 33 34 35 36 37 38 39 40 41 42 43 44 45 46 47 48 49 50

824
ASUS43 KEAX 251910
RWREAX

WEATHER ROUNDUP FOR EASTERN KANSAS AND NORTHWEST MISSOURI
NATIONAL WEATHER SERVICE KANSAS CITY/PLEASANT HILL MO
200 PM CDT SAT MAR 25 2017

KSZ040-057-103>105-MOZ028-029-037-043-252000-
...KANSAS CITY METROPOLITAN AREA...

CITY           SKY/WX    TMP DP  RH WIND       PRES   REMARKS
K.C. INTL      CLOUDY    52  50  93 N12       29.84S
K.C. DOWNTOWN  CLOUDY    54  52  93 N10       29.83S
LEES SUMMIT    CLOUDY    57  54  89 N14       29.81F
OLATHE - IXD   CLOUDY    53  52  96 N13       29.82F
OLATHE - OJC   CLOUDY    54  54 100 N10       29.82S
LAWRENCE       LGT RAIN  52  50  93 N8        29.85S FOG

$$

MOZ001>008-011>017-020>025-030>033-038>040-044>046-053-054-252000-
...NORTHERN AND CENTRAL MISSOURI...

CITY           SKY/WX    TMP DP  RH WIND       PRES   REMARKS
ST. JOSEPH     CLOUDY    50  47  89 N10       29.87F
MOSBY          CLOUDY    54  50  87 N14       29.83F
WARRENSBURG    CLOUDY    61  52  72 N7        29.80F
WHITEMAN AFB   CLOUDY    60  59  99 E3        29.79F
CLINTON        CLOUDY    59  54  82 CALM      29.81F
SEDALIA        CLOUDY    62  52  69 VRB5      29.81F
WARSAW         NOT AVBL
CHILLICOTHE      N/A     54  50  86 N9        29.85F
KIRKSVILLE     CLOUDY    52  51  97 N12       29.85R FOG

$$

MOZ041-047>049-056>058-063>065-088>090-097-252000-
...EASTERN AND SOUTHERN MISSOURI...

CITY           SKY/WX    TMP DP  RH WIND       PRES   REMARKS
ST. LOUIS INTL LGT RAIN  64  57  78 SE8G20    29.86F
SPIRIT OF STL  CLOUDY    62  59  90 VRB6      29.84F
COLUMBIA       RAIN      58  57  97 E6        29.81F FOG
JEFFERSON CITY LGT RAIN  60  56  86 NE7       29.80F
ROLLA          CLOUDY    60  57  89 SE8       29.78F
OSAGE BEACH    LGT RAIN N/A N/A N/A VRB3      29.80F
SPRINGFIELD    LGT RAIN  53  51  93 W13       29.82R
BRANSON        LGT RAIN  54  54 100 W12       29.85R FOG
JOPLIN         CLOUDY    50  47  89 W16       29.87R
WEST PLAINS    PTSUNNY   62  54  74 S8        29.80F

$$

IAZ060-094-KSZ022-034>040-054-083-096-NEZ052-066-093-252000-
...KANSAS...SOUTHEAST NEBRASKA AND IOWA...

CITY           SKY/WX    TMP DP  RH WIND       PRES   REMARKS
TOPEKA         CLOUDY    49  48  97 N13       29.87S
MANHATTAN      CLOUDY    46  43  89 N9        29.92S FOG
EMPORIA        CLOUDY    45  45 100 N14       29.88F FOG
CHANUTE        LGT RAIN  48  44  86 W13       29.88R
WICHITA        CLOUDY    45  40  82 NW16      29.95F
OMAHA          LGT RAIN  43  38  82 N14       29.96S
LINCOLN        CLOUDY    42  39  89 N18       29.98S WCI  34
LAMONI         CLOUDY    45  43  93 NE14      29.87F
DES MOINES     CLOUDY    43  40  89 NE16G23   29.93F

$$





USA.gov is the U.S. government's official web portal to all federal, state and local government web resources and services.